QPF
0.00 0.00 0.00 0.00 0.00 0.00 0.00 0.00 0.00 0.00 0.00 0.00 0.00 0.00 0.00 0.00 0.00 0.00 0.00 0.00 0.00 0.00 0.00 0.00 0.00 0.00 0.00 0.00 0.00 0.00 0.00 0.00 0.00 0.00 0.00 0.00 0.00 0.00 0.00 0.00 0.00 0.00 0.00 0.00
0.00 0.00 0.00 0.00 0.00 0.00 0.00 0.00 0.00 0.00 0.00 0.00 0.00 0.00 0.00 0.00 0.00 0.00 0.00 0.00 0.00 0.00 0.00 0.00 0.00 0.00 0.00 0.00 0.00 0.00 0.00 0.00 0.00 0.00 0.00 0.00 0.00 0.00 0.00 0.00 0.00 0.00 0.00 0.00
0.00 0.00 0.00 0.00 0.00 0.00 0.00 0.00 0.00 0.00 0.00 0.00 0.00 0.00 0.00 0.00 0.00 0.00 0.00 0.00 0.00 0.00 0.00 0.00 0.00 0.00 0.00 0.00 0.00 0.00 0.00 0.00 0.00 0.00 0.00 0.00 0.00 0.00 0.00 0.00 0.00 0.00 0.00 0.01
0.00 0.00 0.00 0.00 0.00 0.00 0.00 0.00 0.00 0.00 0.00 0.00 0.00 0.00 0.00 0.00 0.00 0.00 0.00 0.00 0.00 0.00 0.00 0.00 0.00 0.00 0.00 0.00 0.00 0.00 0.00 0.00 0.00 0.00 0.00 0.00 0.00 0.00 0.00 0.00 0.00 0.00 0.00 0.01
0.00 0.00 0.00 0.00 0.00 0.00 0.00 0.00 0.00 0.00 0.00 0.00 0.00 0.00 0.00 0.00 0.00 0.00 0.00 0.00 0.00 0.00 0.00 0.00 0.00 0.00 0.00 0.00 0.00 0.00 0.00 0.00 0.00 0.00 0.00 0.00 0.00 0.00 0.00 0.00 0.00 0.00 0.00 0.01
0.00 0.00 0.00 0.00 0.00 0.00 0.00 0.00 0.00 0.00 0.00 0.00 0.00 0.00 0.00 0.00 0.00 0.00 0.00 0.00 0.00 0.00 0.00 0.00 0.00 0.00 0.00 0.00 0.00 0.00 0.00 0.00 0.00 0.00 0.00 0.00 0.00 0.00 0.00 0.00 0.00 0.00 0.00 0.01
0.00 0.00 0.00 0.00 0.00 0.00 0.00 0.00 0.00 0.00 0.00 0.00 0.00 0.00 0.00 0.00 0.00 0.00 0.00 0.00 0.00 0.00 0.00 0.00 0.00 0.00 0.00 0.00 0.00 0.00 0.00 0.00 0.00 0.00 0.00 0.00 0.00 0.00 0.00 0.00 0.00 0.00 0.01 0.02
0.00 0.00 0.00 0.00 0.00 0.00 0.00 0.00 0.00 0.00 0.00 0.00 0.00 0.00 0.00 0.00 0.00 0.00 0.00 0.00 0.00 0.00 0.00 0.00 0.00 0.00 0.00 0.00 0.00 0.00 0.00 0.00 0.00 0.00 0.00 0.00 0.00 0.00 0.00 0.00 0.00 0.00 0.00 0.01
0.00 0.00 0.00 0.00 0.00 0.00 0.00 0.00 0.00 0.00 0.00 0.00 0.00 0.00 0.00 0.00 0.00 0.00 0.00 0.00 0.00 0.00 0.00 0.00 0.00 0.00 0.00 0.00 0.00 0.00 0.00 0.00 0.00 0.00 0.00 0.00 0.00 0.00 0.00 0.00 0.00 0.00 0.00 0.00
0.00 0.00 0.00 0.00 0.00 0.00 0.00 0.00 0.00 0.00 0.00 0.00 0.00 0.00 0.00 0.00 0.00 0.00 0.00 0.00 0.00 0.00 0.00 0.00 0.00 0.00 0.00 0.00 0.00 0.00 0.00 0.00 0.00 0.00 0.00 0.00 0.00 0.00 0.00 0.00 0.00 0.00 0.00 0.00
0.00 0.00 0.00 0.00 0.00 0.00 0.00 0.00 0.00 0.00 0.00 0.00 0.00 0.00 0.00 0.00 0.00 0.00 0.00 0.00 0.00 0.00 0.00 0.00 0.00 0.00 0.00 0.00 0.00 0.00 0.00 0.00 0.00 0.00 0.00 0.00 0.00 0.00 0.00 0.00 0.00 0.00 0.00 0.00
0.00 0.00 0.00 0.00 0.00 0.00 0.00 0.00 0.00 0.00 0.00 0.00 0.00 0.00 0.00 0.00 0.00 0.00 0.00 0.00 0.00 0.00 0.00 0.00 0.00 0.00 0.00 0.00 0.00 0.00 0.00 0.00 0.00 0.00 0.00 0.00 0.00 0.00 0.00 0.00 0.00 0.00 0.00 0.00
0.00 0.00 0.00 0.00 0.00 0.00 0.00 0.00 0.00 0.00 0.00 0.00 0.00 0.00 0.00 0.00 0.00 0.00 0.00 0.00 0.00 0.00 0.00 0.00 0.00 0.00 0.00 0.00 0.00 0.00 0.00 0.00 0.00 0.00 0.00 0.00 0.00 0.00 0.00 0.00 0.00 0.00 0.00 0.00
0.00 0.00 0.00 0.00 0.00 0.00 0.00 0.00 0.00 0.00 0.00 0.00 0.00 0.00 0.00 0.00 0.00 0.00 0.00 0.00 0.00 0.00 0.00 0.00 0.00 0.00 0.00 0.00 0.00 0.00 0.00 0.00 0.00 0.00 0.00 0.00 0.00 0.00 0.00 0.00 0.00 0.00 0.00 0.00
0.00 0.00 0.00 0.00 0.00 0.00 0.00 0.00 0.00 0.00 0.00 0.00 0.00 0.00 0.00 0.00 0.00 0.00 0.00 0.00 0.00 0.00 0.00 0.00 0.00 0.00 0.00 0.00 0.00 0.00 0.00 0.00 0.00 0.00 0.00 0.00 0.00 0.00 0.00 0.00 0.00 0.00 0.00 0.00
0.00 0.00 0.00 0.00 0.00 0.00 0.00 0.00 0.00 0.00 0.00 0.00 0.00 0.00 0.00 0.00 0.00 0.00 0.00 0.00 0.00 0.00 0.00 0.00 0.00 0.00 0.00 0.00 0.00 0.00 0.00 0.00 0.00 0.00 0.00 0.00 0.00 0.00 0.00 0.00 0.00 0.00 0.00 0.00
0.00 0.00 0.00 0.00 0.00 0.00 0.00 0.00 0.00 0.00 0.00 0.00 0.00 0.00 0.00 0.00 0.00 0.00 0.00 0.00 0.00 0.00 0.00 0.00 0.00 0.00 0.00 0.00 0.00 0.00 0.00 0.00 0.00 0.00 0.00 0.00 0.00 0.00 0.00 0.00 0.00 0.00 0.00 0.00
0.00 0.00 0.00 0.00 0.00 0.00 0.00 0.00 0.00 0.00 0.00 0.00 0.00 0.00 0.00 0.00 0.00 0.00 0.00 0.00 0.00 0.00 0.00 0.00 0.00 0.00 0.00 0.00 0.00 0.00 0.00 0.00 0.00 0.00 0.00 0.00 0.00 0.00 0.00 0.00 0.00 0.00 0.00 0.00
0.00 0.00 0.00 0.00 0.00 0.00 0.00 0.00 0.00 0.00 0.00 0.00 0.00 0.00 0.00 0.00 0.00 0.00 0.00 0.00 0.00 0.00 0.00 0.00 0.00 0.00 0.00 0.00 0.00 0.00 0.00 0.00 0.00 0.00 0.00 0.00 0.00 0.00 0.00 0.00 0.00 0.00 0.00 0.00
0.00 0.00 0.00 0.00 0.00 0.00 0.00 0.00 0.00 0.00 0.00 0.00 0.00 0.00 0.00 0.00 0.00 0.00 0.00 0.00 0.00 0.00 0.00 0.00 0.00 0.00 0.00 0.00 0.00 0.00 0.00 0.00 0.00 0.00 0.00 0.00 0.00 0.00 0.00 0.00 0.00 0.00 0.00 0.00
0.00 0.00 0.00 0.00 0.00 0.00 0.00 0.00 0.00 0.00 0.00 0.00 0.00 0.00 0.00 0.00 0.00 0.00 0.00 0.00 0.00 0.00 0.00 0.00 0.00 0.00 0.00 0.00 0.00 0.00 0.00 0.00 0.00 0.00 0.00 0.00 0.00 0.00 0.00 0.00 0.00 0.00 0.00 0.00
0.00 0.00 0.00 0.00 0.00 0.00 0.00 0.00 0.00 0.00 0.00 0.00 0.00 0.00 0.00 0.00 0.00 0.00 0.00 0.00 0.00 0.00 0.00 0.00 0.00 0.00 0.00 0.00 0.00 0.00 0.00 0.00 0.00 0.00 0.00 0.00 0.00 0.00 0.00 0.00 0.00 0.00 0.00 0.00
0.00 0.00 0.00 0.00 0.00 0.00 0.00 0.00 0.00 0.00 0.00 0.00 0.00 0.00 0.00 0.00 0.00 0.00 0.00 0.00 0.00 0.00 0.00 0.00 0.00 0.00 0.00 0.00 0.00 0.00 0.00 0.00 0.00 0.00 0.00 0.00 0.00 0.00 0.00 0.00 0.00 0.00 0.00 0.00
0.00 0.00 0.00 0.00 0.00 0.00 0.00 0.00 0.00 0.00 0.00 0.00 0.00 0.00 0.00 0.00 0.00 0.00 0.00 0.00 0.00 0.00 0.00 0.00 0.00 0.00 0.00 0.00 0.00 0.00 0.00 0.00 0.00 0.00 0.00 0.00 0.00 0.00 0.00 0.00 0.00 0.00 0.00 0.00
0.00 0.00 0.00 0.00 0.00 0.00 0.00 0.00 0.00 0.00 0.00 0.00 0.00 0.00 0.00 0.00 0.00 0.00 0.00 0.00 0.00 0.00 0.00 0.00 0.00 0.00 0.00 0.00 0.00 0.00 0.00 0.00 0.00 0.00 0.00 0.00 0.00 0.00 0.00 0.00 0.00 0.00 0.00 0.00
0.00 0.00 0.00 0.00 0.00 0.00 0.00 0.00 0.00 0.00 0.00 0.00 0.00 0.00 0.00 0.00 0.00 0.00 0.00 0.00 0.00 0.00 0.00 0.00 0.00 0.00 0.00 0.00 0.00 0.00 0.00 0.00 0.00 0.00 0.00 0.00 0.00 0.00 0.00 0.00 0.00 0.00 0.00 0.00
MSLP
1016.68 1017.20 1017.57 1018.00 1018.43 1018.35 1018.72 1019.09 1019.01 1018.83 1018.86 1019.45 1019.44 1019.28 1018.12 1018.37 1018.37 1018.04 1018.12 1018.04 1017.80 1017.47 1016.40 1016.72 1016.97 1016.87 1017.24 1017.69 1017.95 1018.21 1018.55 1018.69 1019.36 1019.89 1020.44 1020.90 1021.32 1021.99 1022.37 1022.88 1023.41 1023.81 1024.30 1024.88
1017.59 1017.81 1017.86 1017.80 1018.31 1018.77 1018.84 1019.16 1019.29 1019.06 1019.46 1019.84 1019.61 1019.27 1018.47 1017.88 1017.59 1017.09 1016.98 1017.10 1017.01 1016.72 1016.35 1016.48 1016.76 1016.77 1016.84 1016.75 1016.92 1017.39 1017.52 1017.88 1018.32 1018.81 1019.23 1019.83 1020.45 1021.23 1021.57 1022.34 1022.84 1023.23 1023.74 1024.31
1017.64 1017.56 1017.75 1017.82 1018.63 1019.08 1019.05 1019.24 1019.39 1019.53 1020.19 1020.30 1020.23 1019.56 1018.48 1017.13 1016.96 1016.59 1016.02 1016.09 1016.39 1016.70 1016.68 1016.29 1016.45 1016.46 1016.40 1016.58 1016.65 1016.66 1016.79 1017.09 1017.35 1017.96 1018.72 1019.45 1020.17 1020.95 1021.28 1021.48 1022.07 1022.35 1022.87 1023.29
1017.86 1017.73 1018.12 1018.19 1018.60 1018.87 1019.34 1019.09 1019.36 1020.01 1020.75 1021.19 1021.09 1020.48 1018.67 1017.63 1017.12 1016.33 1015.26 1015.85 1016.13 1016.40 1016.48 1016.47 1016.31 1016.14 1016.12 1016.01 1016.32 1016.30 1016.30 1016.66 1016.96 1017.53 1017.99 1018.57 1019.13 1019.86 1020.10 1020.61 1021.11 1021.55 1022.06 1022.48
1017.50 1017.64 1018.10 1018.22 1018.02 1018.47 1019.12 1019.43 1020.19 1020.68 1021.35 1021.60 1021.65 1021.48 1018.45 1017.89 1017.09 1015.61 1015.01 1015.68 1016.02 1016.35 1016.58 1016.67 1016.49 1016.28 1015.99 1015.87 1015.93 1016.08 1016.02 1016.41 1016.66 1017.04 1017.44 1017.94 1018.50 1018.87 1019.56 1020.21 1020.75 1020.99 1021.41 1021.79
1017.50 1017.51 1017.36 1017.25 1018.18 1018.56 1019.31 1020.09 1021.13 1021.81 1022.27 1022.46 1021.51 1021.32 1018.10 1017.47 1016.04 1015.40 1015.14 1015.55 1016.01 1016.45 1016.72 1016.83 1016.66 1016.52 1016.29 1016.00 1015.90 1015.91 1015.85 1016.18 1016.50 1016.77 1017.21 1017.55 1017.98 1018.64 1019.39 1020.02 1020.45 1020.81 1021.20 1021.58
1017.66 1017.56 1017.29 1017.15 1018.42 1019.24 1019.29 1020.28 1022.11 1023.06 1023.22 1022.75 1021.93 1021.47 1017.11 1016.21 1015.34 1015.35 1015.40 1015.68 1016.01 1016.41 1016.83 1017.00 1017.00 1016.80 1016.70 1016.59 1016.30 1016.04 1015.98 1016.24 1016.48 1016.76 1017.05 1017.28 1017.69 1018.41 1019.19 1019.89 1020.32 1020.87 1021.28 1021.51
1017.00 1017.62 1016.93 1016.67 1017.05 1017.98 1019.28 1019.36 1020.42 1022.00 1023.24 1022.81 1022.32 1020.20 1016.45 1015.36 1015.36 1015.30 1015.57 1015.77 1016.07 1016.49 1016.89 1017.06 1017.24 1017.20 1017.28 1017.32 1017.08 1016.66 1016.49 1016.57 1016.68 1016.90 1017.27 1017.56 1017.90 1018.37 1019.08 1019.63 1020.06 1020.59 1020.92 1021.29
1015.83 1016.25 1016.22 1016.32 1016.61 1017.00 1018.65 1018.89 1018.89 1021.15 1023.56 1022.94 1021.04 1018.73 1016.52 1014.91 1015.12 1015.40 1015.71 1015.85 1016.27 1016.49 1016.84 1017.18 1017.45 1017.54 1017.73 1017.72 1017.63 1017.18 1017.06 1017.16 1017.28 1017.44 1017.64 1017.90 1018.39 1018.92 1019.37 1019.74 1020.09 1020.65 1021.08 1021.33
1014.35 1015.77 1016.43 1016.55 1016.52 1016.79 1016.62 1017.38 1019.12 1020.53 1022.18 1022.50 1020.24 1018.81 1016.28 1015.46 1015.44 1015.65 1015.85 1016.07 1016.54 1016.76 1017.02 1017.31 1017.64 1017.76 1017.93 1018.12 1017.97 1017.73 1017.60 1017.69 1017.90 1017.95 1018.19 1018.40 1018.66 1019.14 1019.53 1019.95 1020.37 1020.80 1021.20 1021.57
1013.81 1014.55 1017.05 1016.88 1016.41 1016.06 1017.02 1017.15 1017.94 1018.81 1019.79 1020.08 1019.78 1017.33 1015.11 1014.59 1014.84 1015.43 1016.01 1016.35 1016.56 1017.05 1017.38 1017.74 1017.82 1017.99 1018.04 1018.17 1018.25 1018.24 1018.23 1018.35 1018.46 1018.52 1018.64 1018.82 1019.06 1019.50 1019.79 1020.04 1020.60 1020.85 1021.17 1021.68
1013.22 1014.48 1016.42 1016.57 1016.48 1016.34 1016.10 1015.88 1016.33 1017.62 1018.76 1019.13 1018.81 1015.83 1014.83 1014.94 1015.24 1015.66 1016.19 1016.49 1016.71 1017.04 1017.45 1017.68 1017.91 1018.11 1018.23 1018.29 1018.54 1018.68 1018.72 1018.80 1018.99 1019.04 1019.16 1019.33 1019.38 1019.64 1019.94 1020.23 1020.65 1020.89 1021.07 1021.49
1012.68 1014.16 1016.13 1016.99 1017.13 1016.84 1016.43 1016.35 1016.23 1016.66 1017.40 1017.70 1018.07 1015.15 1015.00 1015.35 1015.75 1015.96 1016.28 1016.54 1016.68 1016.95 1017.44 1017.85 1018.26 1018.48 1018.57 1018.67 1018.73 1018.83 1018.98 1019.09 1019.37 1019.62 1019.61 1020.02 1019.85 1019.94 1020.17 1020.36 1020.66 1020.86 1021.09 1021.42
1012.16 1013.41 1013.97 1014.20 1014.79 1015.58 1016.57 1016.00 1015.74 1015.96 1016.90 1016.00 1015.71 1014.42 1015.39 1015.70 1015.78 1016.06 1016.26 1016.58 1016.94 1017.35 1017.84 1018.19 1018.53 1018.83 1018.93 1019.03 1019.05 1019.17 1019.35 1019.41 1019.46 1019.69 1019.89 1019.87 1019.96 1020.16 1020.48 1020.68 1020.90 1021.15 1021.32 1021.45
1012.30 1013.35 1014.10 1014.55 1014.64 1015.05 1015.11 1015.12 1015.34 1015.46 1014.45 1015.12 1011.89 1014.14 1014.44 1015.06 1015.49 1015.59 1015.93 1016.53 1017.08 1017.60 1018.01 1018.32 1018.75 1019.07 1019.35 1019.43 1019.37 1019.58 1019.85 1019.97 1020.15 1020.00 1019.76 1020.06 1020.19 1020.32 1020.51 1020.63 1020.82 1021.19 1021.39 1021.68
1013.09 1013.92 1014.22 1014.89 1014.88 1015.24 1015.47 1015.08 1014.57 1014.19 1013.92 1013.45 1013.25 1012.56 1013.25 1014.02 1014.98 1015.67 1016.00 1016.49 1017.18 1017.91 1018.49 1018.69 1018.92 1019.31 1019.63 1020.05 1019.67 1019.79 1020.21 1020.55 1020.40 1020.43 1020.72 1020.24 1020.18 1020.49 1020.78 1021.09 1020.96 1021.25 1021.59 1021.63
1013.56 1014.13 1014.82 1014.88 1015.00 1015.68 1015.56 1012.94 1014.16 1013.89 1013.46 1013.19 1013.13 1011.00 1013.20 1014.18 1014.63 1015.04 1015.87 1016.56 1017.23 1017.84 1018.44 1018.79 1018.95 1019.29 1019.57 1019.67 1019.91 1020.12 1020.30 1020.45 1020.39 1020.85 1020.93 1020.49 1020.67 1020.99 1021.13 1020.89 1021.05 1021.36 1021.64 1021.43
1013.42 1014.01 1014.39 1014.83 1015.03 1014.78 1012.60 1012.44 1012.45 1012.77 1012.38 1012.60 1012.13 1012.34 1012.79 1013.35 1013.87 1014.34 1015.04 1016.01 1016.99 1017.61 1018.04 1018.46 1018.68 1019.00 1019.38 1019.71 1020.05 1020.16 1020.28 1020.52 1020.83 1020.97 1020.98 1020.95 1020.83 1021.27 1021.45 1021.35 1021.33 1021.36 1021.48 1021.64
1013.22 1013.69 1013.93 1014.20 1014.38 1013.97 1012.56 1013.01 1012.90 1012.88 1011.60 1011.36 1011.97 1012.70 1013.23 1013.96 1014.59 1015.09 1015.33 1015.75 1016.57 1017.42 1018.22 1018.78 1019.14 1019.48 1019.90 1020.10 1020.21 1020.18 1020.35 1020.64 1020.71 1021.08 1021.32 1021.58 1021.78 1021.94 1021.89 1021.93 1021.85 1021.74 1021.83 1021.84
1013.53 1013.40 1013.73 1014.32 1014.43 1013.98 1013.04 1012.37 1012.29 1012.49 1011.78 1011.09 1011.03 1011.91 1013.38 1014.49 1015.07 1014.92 1015.62 1016.32 1017.21 1017.90 1018.63 1019.23 1019.68 1019.98 1020.25 1020.67 1020.69 1020.67 1020.94 1021.07 1021.52 1021.85 1022.10 1022.24 1022.33 1022.48 1022.55 1022.37 1022.29 1022.14 1022.06 1021.84
1013.87 1013.83 1013.49 1014.03 1014.26 1013.49 1012.28 1012.52 1012.83 1013.40 1012.84 1011.98 1011.84 1012.36 1013.74 1014.44 1014.59 1014.68 1015.77 1016.99 1017.68 1018.35 1019.05 1019.64 1020.01 1020.48 1020.97 1021.16 1021.18 1021.44 1021.74 1022.18 1022.40 1022.36 1022.30 1022.31 1022.39 1022.51 1022.43 1022.38 1022.29 1022.31 1022.23 1022.00
1013.58 1013.79 1013.71 1013.93 1013.93 1013.16 1012.01 1013.03 1012.87 1012.14 1012.45 1012.47 1012.59 1012.89 1013.99 1014.64 1015.27 1015.77 1016.55 1017.54 1018.25 1018.80 1019.41 1019.92 1020.54 1021.31 1021.72 1021.75 1021.78 1022.22 1022.61 1022.92 1022.89 1022.92 1022.87 1022.91 1022.73 1022.63 1022.52 1022.51 1022.31 1022.21 1022.20 1021.98
1013.83 1012.75 1012.98 1012.86 1011.69 1011.20 1011.57 1011.71 1011.71 1011.96 1012.29 1012.71 1013.01 1013.48 1013.91 1015.05 1015.92 1016.52 1017.39 1018.21 1018.99 1019.63 1020.22 1020.75 1021.25 1022.16 1022.75 1022.94 1023.01 1023.29 1023.73 1023.71 1023.70 1023.66 1023.52 1023.24 1022.89 1022.65 1022.45 1022.49 1022.40 1022.19 1022.01 1021.76
1013.64 1013.00 1012.90 1012.81 1011.64 1011.69 1011.68 1011.96 1012.10 1012.30 1012.51 1012.82 1013.00 1013.46 1014.16 1015.13 1016.20 1016.96 1017.74 1018.63 1019.52 1020.42 1021.17 1021.89 1022.37 1022.98 1023.60 1023.92 1024.03 1024.30 1024.50 1024.50 1024.44 1024.25 1023.81 1023.36 1023.13 1022.80 1022.50 1022.34 1022.12 1021.83 1021.49 1021.28
1013.37 1013.23 1013.12 1012.59 1012.27 1012.38 1012.09 1012.04 1012.02 1012.50 1012.92 1013.33 1013.68 1014.05 1014.63 1015.36 1016.60 1017.42 1018.44 1019.29 1020.25 1021.33 1022.17 1022.77 1023.18 1023.84 1024.39 1024.72 1024.95 1025.34 1025.48 1025.43 1025.15 1024.72 1024.17 1023.70 1023.39 1023.15 1022.55 1022.08 1021.57 1021.18 1020.70 1020.60
1013.36 1012.94 1012.61 1011.65 1011.35 1011.18 1011.14 1011.14 1011.78 1012.63 1013.05 1013.45 1013.75 1014.91 1015.68 1016.18 1017.13 1018.20 1019.40 1020.23 1021.15 1022.11 1023.01 1023.61 1024.13 1024.44 1024.92 1025.24 1025.55 1026.03 1026.12 1025.96 1025.62 1025.09 1024.66 1024.33 1023.83 1023.23 1022.66 1021.99 1020.95 1020.50 1019.96 1019.63
Thickness
5627 5626 5623 5632 5634 5639 5632 5631 5634 5641 5648 5646 5645 5648 5669 5669 5676 5681 5681 5684 5690 5696 5708 5706 5705 5708 5708 5708 5707 5704 5701 5700 5694 5689 5684 5680 5676 5670 5666 5659 5653 5649 5643 5637
5612 5610 5623 5629 5627 5627 5627 5626 5627 5638 5636 5638 5640 5647 5660 5668 5676 5684 5689 5688 5691 5697 5702 5702 5700 5702 5703 5709 5710 5706 5705 5701 5697 5693 5688 5683 5677 5670 5665 5656 5651 5647 5641 5635
5604 5621 5618 5623 5618 5618 5620 5619 5622 5629 5622 5624 5626 5638 5652 5671 5672 5679 5686 5688 5688 5689 5691 5698 5697 5700 5702 5702 5703 5705 5705 5702 5700 5694 5687 5679 5674 5667 5661 5658 5652 5646 5641 5636
5604 5607 5606 5610 5611 5613 5605 5616 5620 5617 5612 5608 5614 5617 5640 5658 5661 5673 5686 5684 5683 5684 5686 5689 5692 5696 5700 5701 5699 5700 5701 5699 5696 5691 5687 5680 5675 5668 5664 5659 5653 5646 5639 5634
5598 5598 5599 5605 5615 5613 5612 5604 5605 5606 5596 5603 5606 5604 5636 5645 5660 5677 5685 5680 5682 5679 5677 5680 5684 5688 5693 5695 5695 5694 5696 5693 5690 5686 5682 5677 5672 5668 5661 5653 5647 5643 5636 5630
5588 5593 5599 5606 5599 5606 5593 5592 5585 5575 5581 5582 5597 5606 5631 5645 5662 5674 5678 5676 5671 5670 5670 5671 5675 5678 5682 5686 5688 5688 5688 5686 5682 5679 5675 5671 5666 5660 5651 5645 5639 5634 5628 5623
5579 5583 5592 5596 5586 5585 5592 5586 5564 5567 5560 5580 5575 5591 5639 5650 5657 5663 5669 5666 5665 5664 5664 5663 5665 5668 5670 5673 5677 5679 5679 5676 5673 5670 5667 5664 5660 5652 5644 5636 5631 5624 5618 5614
5565 5562 5580 5592 5594 5587 5577 5588 5572 5560 5560 5580 5568 5592 5636 5646 5651 5656 5654 5654 5655 5658 5654 5655 5653 5654 5655 5657 5660 5665 5666 5663 5660 5657 5653 5650 5646 5641 5634 5628 5623 5617 5612 5606
5563 5572 5579 5585 5586 5592 5576 5576 5590 5550 5472 5539 5575 5600 5628 5642 5641 5647 5647 5649 5648 5649 5646 5643 5640 5640 5641 5643 5643 5648 5649 5647 5644 5641 5638 5635 5630 5625 5621 5617 5613 5606 5600 5595
5572 5565 5565 5572 5579 5580 5585 5586 5565 5545 5525 5532 5574 5585 5623 5638 5637 5632 5636 5639 5635 5636 5635 5632 5629 5628 5628 5626 5628 5631 5632 5631 5628 5626 5623 5620 5617 5612 5608 5603 5598 5593 5587 5582
5565 5567 5546 5556 5561 5571 5568 5569 5567 5567 5557 5553 5544 5591 5614 5635 5631 5623 5620 5620 5619 5619 5617 5617 5618 5616 5616 5614 5613 5613 5614 5613 5611 5610 5607 5604 5601 5596 5593 5590 5584 5581 5577 5571
5562 5547 5525 5543 5554 5558 5567 5575 5574 5566 5552 5539 5546 5597 5613 5614 5613 5609 5607 5607 5607 5605 5601 5601 5601 5601 5602 5602 5599 5597 5596 5596 5594 5592 5590 5588 5588 5584 5581 5578 5574 5569 5567 5560
5549 5518 5486 5512 5533 5538 5548 5556 5561 5556 5546 5539 5543 5605 5586 5590 5592 5596 5597 5598 5595 5597 5589 5584 5584 5585 5586 5585 5585 5584 5583 5580 5577 5575 5575 5572 5573 5571 5567 5564 5560 5557 5552 5547
5550 5520 5545 5552 5553 5547 5541 5548 5560 5566 5533 5568 5562 5603 5582 5577 5580 5580 5582 5579 5581 5575 5572 5570 5569 5566 5565 5568 5570 5570 5569 5567 5566 5563 5561 5561 5558 5555 5552 5549 5545 5541 5537 5534
5538 5531 5529 5537 5531 5531 5533 5544 5548 5550 5570 5553 5605 5576 5579 5569 5565 5568 5566 5566 5562 5562 5559 5556 5553 5552 5551 5550 5552 5552 5551 5550 5549 5550 5551 5547 5544 5541 5538 5536 5532 5528 5525 5522
5518 5513 5515 5508 5521 5525 5520 5524 5537 5552 5560 5565 5572 5575 5579 5576 5558 5556 5558 5555 5552 5544 5539 5539 5542 5540 5538 5535 5538 5538 5534 5531 5533 5533 5530 5532 5531 5527 5524 5520 5520 5515 5512 5509
5504 5501 5509 5528 5512 5505 5511 5548 5522 5530 5534 5554 5552 5595 5568 5556 5554 5551 5546 5541 5537 5533 5531 5529 5528 5527 5526 5526 5524 5522 5520 5519 5519 5515 5514 5516 5514 5511 5509 5509 5507 5502 5499 5498
5490 5492 5498 5502 5506 5517 5546 5528 5546 5542 5550 5543 5553 5557 5555 5561 5550 5548 5542 5534 5527 5524 5522 5520 5518 5517 5514 5512 5509 5508 5507 5506 5504 5503 5503 5502 5503 5498 5495 5494 5494 5492 5488 5484
5493 5489 5497 5501 5504 5496 5536 5516 5518 5524 5547 5555 5547 5538 5537 5524 5527 5531 5527 5527 5523 5517 5511 5506 5504 5502 5499 5498 5497 5499 5498 5495 5495 5491 5488 5485 5482 5480 5478 5476 5475 5473 5469 5467
5475 5482 5493 5470 5493 5484 5501 5510 5519 5527 5540 5534 5550 5547 5518 5514 5529 5529 5514 5510 5505 5500 5495 5491 5489 5486 5485 5482 5483 5483 5480 5479 5474 5471 5469 5465 5462 5458 5457 5457 5455 5454 5452 5452
5477 5476 5492 5476 5460 5473 5503 5507 5507 5504 5525 5516 5526 5524 5508 5520 5523 5512 5500 5495 5490 5486 5481 5476 5474 5471 5467 5466 5466 5464 5460 5456 5453 5452 5451 5449 5447 5444 5443 5441 5440 5437 5436 5434
5476 5476 5481 5466 5469 5497 5492 5493 5504 5512 5497 5503 5503 5504 5497 5490 5488 5488 5483 5477 5473 5471 5466 5463 5458 5451 5447 5447 5447 5445 5441 5436 5434 5432 5432 5430 5429 5429 5428 5425 5425 5423 5421 5419
5451 5466 5465 5476 5490 5486 5477 5488 5489 5487 5492 5489 5490 5487 5485 5477 5472 5469 5463 5459 5455 5452 5447 5442 5439 5431 5425 5423 5423 5422 5416 5415 5413 5412 5412 5412 5413 5414 5413 5411 5411 5409 5406 5405
5418 5433 5438 5455 5473 5472 5473 5470 5473 5470 5476 5475 5474 5474 5473 5467 5458 5453 5448 5445 5439 5433 5426 5419 5416 5411 5405 5401 5401 5397 5394 5392 5390 5390 5393 5396 5396 5397 5397 5396 5395 5394 5392 5390
5420 5422 5414 5426 5445 5451 5456 5456 5462 5459 5457 5454 5453 5452 5452 5451 5439 5438 5431 5425 5418 5408 5400 5395 5393 5389 5384 5381 5379 5374 5371 5370 5372 5375 5378 5379 5378 5377 5380 5380 5381 5380 5378 5375
5402 5412 5424 5434 5445 5453 5461 5453 5444 5442 5443 5440 5439 5431 5429 5428 5422 5414 5406 5400 5392 5384 5376 5373 5368 5366 5362 5360 5359 5353 5351 5351 5353 5358 5359 5358 5359 5361 5362 5363 5368 5365 5366 5363